EW0362 Weather Reports


time (UTC)temp
C
wind
direction
speed
KPH
gust
KPH
rain 1hr
cm
rain 24hr
cm
rain mn
cm
humidity
%
barometer
mb
20260507094204 9 259 0.0 0.0 0.03 0.46 0.05 92 1007.3
20260507093204 9 259 0.0 0.0 0.03 0.46 0.05 92 1007.2
20260507092204 9 259 0.0 0.0 0.03 0.46 0.05 92 1007.0
20260507091704 9 259 0.0 3.2 0.00 0.43 0.03 92 1007.1
20260507090205 9 256 0.0 1.6 0.00 0.43 0.03 92 1007.4
20260507085703 10 256 0.0 1.6 0.00 0.43 0.03 92 1007.1
20260507085204 10 256 0.0 1.6 0.00 0.43 0.03 92 1006.9
20260507084704 10 255 0.0 1.6 0.00 0.43 0.03 92 1006.9
20260507083704 10 256 0.0 0.0 0.00 0.43 0.03 92 1006.8
20260507082204 10 257 0.0 0.0 0.00 0.43 0.03 91 1006.7
20260507081204 10 258 0.0 3.2 0.00 0.43 0.03 90 1006.7
20260507080703 10 250 0.0 0.0 0.00 0.43 0.03 90 1006.7
20260507080204 10 257 1.6 3.2 0.00 0.43 0.03 89 1006.5
20260507075705 10 129 1.6 3.2 0.00 0.43 0.03 88 1006.7
20260507075204 10 193 0.0 1.6 0.00 0.43 0.03 89 1006.6
20260507074205 10 193 0.0 1.6 0.00 0.43 0.03 88 1007.0
20260507073704 10 256 1.6 4.8 0.00 0.43 0.03 88 1006.9
20260507073204 10 221 3.2 9.7 0.00 0.43 0.03 90 1006.5
20260507064703 11 291 0.0 8.0 0.00 0.43 0.03 89 1006.1
20260507064203 11 269 1.6 9.7 0.00 0.43 0.03 90 1006.1
20260507061204 11 266 0.0 1.6 0.00 0.43 0.03 90 1006.0
20260507060703 11 266 0.0 3.2 0.00 0.43 0.03 90 1006.0
20260507060204 11 266 0.0 4.8 0.00 0.43 0.03 90 1006.1
20260507054203 11 292 0.0 3.2 0.00 0.43 0.03 93 1006.5
20260507051703 11 294 0.0 1.6 0.00 0.43 0.03 92 1006.5
20260507051204 11 294 0.0 3.2 0.03 0.43 0.03 92 1006.5
20260507050704 11 294 1.6 3.2 0.03 0.43 0.03 91 1006.7
20260507043204 12 290 1.6 4.8 0.03 0.43 0.03 93 1006.4
20260507042703 12 324 0.0 4.8 0.03 0.43 0.03 93 1006.2
20260507041704 12 288 0.0 1.6 0.03 0.43 0.03 93 1006.4
20260507040703 13 292 3.2 11.3 0.00 0.41 0.00 92 1006.5
20260507035704 13 243 1.6 8.0 0.00 0.41 0.41 94 1006.3
20260507034204 13 247 0.0 4.8 0.00 0.41 0.41 93 1005.8
20260507033203 14 330 1.6 4.8 0.00 0.41 0.41 95 1005.6
20260507031703 15 280 0.0 4.8 0.00 0.41 0.41 95 1005.4
20260507031204 15 285 1.6 3.2 0.00 0.41 0.41 95 1005.2
20260507030704 15 284 0.0 4.8 0.00 0.41 0.41 95 1005.3
20260507030205 15 285 1.6 4.8 0.00 0.41 0.41 95 1005.5
20260507023703 15 247 1.6 9.7 0.00 0.41 0.41 96 1005.1
20260507022204 15 177 0.0 0.0 0.00 0.41 0.41 96 1004.9
20260507021703 15 177 0.0 1.6 0.00 0.41 0.41 96 1004.8
20260507020704 15 177 0.0 1.6 0.00 0.41 0.41 96 1004.6
20260507020203 15 177 0.0 0.0 0.00 0.41 0.41 96 1004.7
20260507014703 15 177 0.0 1.6 0.00 0.41 0.41 96 1004.7
20260507014204 15 177 0.0 1.6 0.00 0.41 0.41 96 1004.7
20260507013203 15 177 1.6 4.8 0.00 0.41 0.41 96 1004.7
20260507012704 15 187 0.0 4.8 0.00 0.41 0.41 96 1004.7
20260507010704 15 190 0.0 3.2 0.00 0.41 0.41 96 1004.8
20260507010203 15 189 3.2 9.7 0.00 0.41 0.41 96 1004.9
20260507005204 15 202 0.0 3.2 0.00 0.41 0.41 96 1004.8
20260507003205 15 188 1.6 4.8 0.00 0.41 0.41 96 1004.6
20260507001205 15 173 0.0 4.8 0.03 0.41 0.41 96 1004.6
20260506235705 15 204 0.0 1.6 0.10 0.41 0.41 96 1004.5
20260506235204 15 204 1.6 4.8 0.10 0.41 0.41 95 1004.5
20260506234705 15 188 0.0 3.2 0.13 0.41 0.41 95 1004.4
20260506233704 15 188 0.0 3.2 0.13 0.41 0.41 95 1004.4
20260506232706 15 189 1.6 4.8 0.15 0.41 0.41 95 1004.4
20260506225704 15 192 1.6 4.8 0.05 0.30 0.30 95 1004.7
20260506224704 15 174 1.6 4.8 0.05 0.28 0.28 95 1004.8
20260506224204 15 170 1.6 4.8 0.05 0.28 0.28 95 1004.8
20260506222704 16 164 1.6 3.2 0.05 0.25 0.25 94 1004.8
20260506221204 16 166 1.6 8.0 0.05 0.25 0.25 94 1004.8
20260506220704 16 186 1.6 4.8 0.05 0.25 0.25 94 1004.8
20260506215205 16 199 3.2 8.0 0.08 0.25 0.25 94 1004.9
20260506212704 16 168 1.6 4.8 0.08 0.20 0.20 93 1004.9
20260506212205 16 200 3.2 9.7 0.08 0.20 0.20 93 1005.0
20260506211205 16 176 0.0 8.0 0.10 0.20 0.20 93 1005.2
20260506205704 16 176 1.6 4.8 0.08 0.18 0.18 93 1005.3
20260506205205 16 181 1.6 4.8 0.08 0.18 0.18 92 1005.3
20260506204204 17 198 1.6 4.8 0.05 0.15 0.15 93 1005.5
20260506203705 17 197 0.0 3.2 0.05 0.15 0.15 92 1005.5
20260506201704 17 173 1.6 4.8 0.05 0.13 0.13 92 1005.6
20260506201204 17 186 1.6 3.2 0.03 0.10 0.10 91 1005.5
20260506200204 17 190 1.6 9.7 0.05 0.10 0.10 91 1005.5
20260506195705 17 200 0.0 3.2 0.05 0.10 0.10 91 1005.5
20260506195205 17 183 0.0 3.2 0.05 0.10 0.10 91 1005.5
20260506194704 17 186 1.6 4.8 0.08 0.10 0.10 90 1005.6
20260506192705 18 184 1.6 3.2 0.10 0.10 0.10 90 1005.5
20260506191704 18 184 3.2 8.0 0.08 0.08 0.08 89 1005.4
20260506190706 18 238 0.0 0.0 0.08 0.08 0.08 88 1005.5
20260506185705 18 238 0.0 1.6 0.05 0.05 0.05 86 1005.7
20260506183705 20 238 0.0 1.6 0.03 0.03 0.03 79 1005.8
20260506181704 21 233 3.2 8.0 0.00 0.00 0.00 70 1005.9
20260506173204 22 190 4.8 19.3 0.00 0.00 0.00 60 1005.7
20260506171704 23 177 4.8 20.9 0.00 0.00 0.00 61 1005.7
20260506171205 23 218 4.8 16.1 0.00 0.00 0.00 60 1005.7
20260506170705 23 158 3.2 4.8 0.00 0.00 0.00 61 1005.9
20260506170204 23 184 3.2 14.5 0.00 0.00 0.00 62 1005.9
20260506165704 22 166 3.2 9.7 0.00 0.00 0.00 63 1006.0
20260506165205 22 231 3.2 9.7 0.00 0.00 0.00 63 1006.1
20260506164705 22 209 3.2 11.3 0.00 0.00 0.00 62 1006.2
20260506163704 22 172 4.8 12.9 0.00 0.00 0.00 63 1006.3
20260506163204 22 183 3.2 8.0 0.00 0.00 0.00 64 1006.4
20260506161704 22 131 3.2 4.8 0.00 0.00 0.00 65 1006.6
20260506161205 22 168 3.2 4.8 0.00 0.00 0.00 65 1006.6
20260506160704 22 169 3.2 12.9 0.00 0.00 0.00 66 1006.8
20260506154704 21 198 3.2 9.7 0.00 0.00 0.00 67 1007.3
20260506154205 21 180 3.2 4.8 0.00 0.00 0.00 68 1007.4
20260506153704 21 196 3.2 9.7 0.00 0.00 0.00 67 1007.4
20260506153204 21 227 4.8 14.5 0.00 0.00 0.00 66 1007.6
20260506152204 21 198 3.2 9.7 0.00 0.00 0.00 67 1007.7
20260506151704 21 172 3.2 8.0 0.00 0.00 0.00 66 1007.7
20260506151205 21 218 3.2 4.8 0.00 0.00 0.00 67 1007.9
20260506150205 21 190 6.4 20.9 0.00 0.00 0.00 65 1007.7
20260506142204 21 190 4.8 11.3 0.00 0.00 0.00 69 1007.8
20260506141704 21 159 3.2 4.8 0.00 0.00 0.00 70 1007.5
20260506140204 20 162 1.6 14.5 0.00 0.00 0.00 73 1007.5
20260506135704 20 197 4.8 8.0 0.00 0.00 0.00 73 1007.6
20260506134704 20 161 3.2 9.7 0.00 0.00 0.00 74 1007.7
20260506134204 19 175 1.6 4.8 0.00 0.00 0.00 75 1007.8
20260506133704 19 175 1.6 4.8 0.00 0.00 0.00 75 1007.8
20260506132704 19 249 3.2 12.9 0.00 0.00 0.00 76 1008.2
20260506131705 18 181 3.2 8.0 0.00 0.00 0.00 76 1008.4
20260506131204 18 187 3.2 8.0 0.00 0.00 0.00 76 1008.3
20260506130204 18 173 1.6 4.8 0.00 0.00 0.00 76 1008.2
20260506124704 18 182 4.8 12.9 0.00 0.00 0.00 76 1008.5
20260506123704 18 178 3.2 9.7 0.00 0.00 0.00 77 1008.2
20260506123204 18 176 1.6 4.8 0.00 0.00 0.00 77 1008.1
20260506122704 18 185 1.6 12.9 0.00 0.00 0.00 78 1008.2
20260506122204 18 174 1.6 4.8 0.00 0.00 0.00 77 1008.2
20260506121204 17 194 1.6 4.8 0.00 0.00 0.00 78 1008.6
20260506120204 17 205 1.6 9.7 0.00 0.00 0.00 80 1008.5
20260506113704 17 190 1.6 11.3 0.00 0.00 0.00 80 1008.7
20260506113204 17 202 1.6 12.9 0.00 0.00 0.00 80 1008.7
20260506112704 17 189 3.2 8.0 0.00 0.00 0.00 80 1008.8
20260506110704 16 156 1.6 4.8 0.00 0.00 0.00 82 1008.7
20260506110205 16 154 1.6 8.0 0.00 0.00 0.00 83 1008.7
20260506105203 16 182 1.6 4.8 0.00 0.00 0.00 83 1008.8
20260506104204 16 163 1.6 4.8 0.00 0.00 0.00 82 1008.9
20260506103204 16 174 1.6 11.3 0.00 0.00 0.00 82 1008.8
20260506102704 16 163 0.0 3.2 0.00 0.00 0.00 82 1008.7
20260506102205 16 164 1.6 4.8 0.00 0.00 0.00 83 1008.6
20260506101204 15 164 0.0 3.2 0.00 0.00 0.00 82 1008.8
20260506100204 15 164 0.0 3.2 0.00 0.00 0.00 82 1008.8
20260506095204 16 165 1.6 3.2 0.00 0.00 0.00 82 1008.7
20260506094704 16 161 0.0 3.2 0.00 0.00 0.00 81 1008.7